TimeCDT,TemperatureF,Dew PointF,Humidity,Sea Level PressureIn,VisibilityMPH,Wind Direction,Wind SpeedMPH,Gust SpeedMPH,PrecipitationIn,Events,Conditions,WindDirDegrees,DateUTC
12:53 AM,69.1,66.0,90,30.08,10.0,Calm,Calm,-,N/A,,Clear,0,2013-08-20 05:53:00
1:53 AM,71.1,66.9,87,30.07,10.0,Calm,Calm,-,N/A,,Mostly Cloudy,0,2013-08-20 06:53:00
2:53 AM,69.1,66.9,93,30.07,10.0,Calm,Calm,-,N/A,,Overcast,0,2013-08-20 07:53:00
3:53 AM,69.1,66.9,93,30.06,10.0,Calm,Calm,-,N/A,,Overcast,0,2013-08-20 08:53:00
4:53 AM,69.1,66.9,93,30.07,10.0,Calm,Calm,-,N/A,,Overcast,0,2013-08-20 09:53:00
5:53 AM,69.1,66.9,93,30.09,10.0,Calm,Calm,-,N/A,,Overcast,0,2013-08-20 10:53:00
6:53 AM,70.0,68.0,93,30.11,10.0,Calm,Calm,-,N/A,,Overcast,0,2013-08-20 11:53:00
7:53 AM,72.0,69.1,91,30.12,10.0,ESE,3.5,-,N/A,,Clear,110,2013-08-20 12:53:00
8:53 AM,75.0,70.0,84,30.13,10.0,South,4.6,-,N/A,,Overcast,180,2013-08-20 13:53:00
9:53 AM,77.0,71.1,82,30.14,10.0,Calm,Calm,-,N/A,,Mostly Cloudy,0,2013-08-20 14:53:00
10:53 AM,80.1,70.0,71,30.14,10.0,ESE,3.5,-,N/A,,Mostly Cloudy,110,2013-08-20 15:53:00
11:09 AM,80.6,71.6,74,30.15,10.0,South,4.6,-,N/A,,Mostly Cloudy,180,2013-08-20 16:09:00
11:33 AM,80.6,71.6,74,30.15,10.0,South,5.8,-,N/A,,Mostly Cloudy,180,2013-08-20 16:33:00
11:53 AM,81.0,70.0,69,30.13,10.0,South,3.5,-,N/A,,Partly Cloudy,180,2013-08-20 16:53:00
12:53 PM,82.9,70.0,65,30.11,10.0,SE,3.5,-,N/A,,Partly Cloudy,130,2013-08-20 17:53:00
1:53 PM,82.0,70.0,67,30.09,10.0,ESE,9.2,-,N/A,,Partly Cloudy,120,2013-08-20 18:53:00
2:13 PM,80.6,69.8,70,30.10,10.0,ESE,8.1,-,N/A,Thunderstorm,Clear,120,2013-08-20 19:13:00
2:26 PM,80.6,69.8,70,30.10,10.0,SE,6.9,-,N/A,Thunderstorm,Partly Cloudy,140,2013-08-20 19:26:00
2:32 PM,80.6,69.8,70,30.10,1.8,SE,5.8,-,N/A,Thunderstorm,Haze,130,2013-08-20 19:32:00
2:44 PM,80.6,69.8,70,30.10,10.0,SSE,5.8,-,0.00,Rain,Light Rain,150,2013-08-20 19:44:00
2:53 PM,80.1,71.1,74,30.09,10.0,South,10.4,16.1,0.00,Rain-Thunderstorm,Light Rain,180,2013-08-20 19:53:00
3:10 PM,75.2,71.6,89,30.12,10.0,West,10.4,-,0.01,Rain-Thunderstorm,Light Rain,270,2013-08-20 20:10:00
3:34 PM,75.2,69.8,83,30.11,10.0,NW,4.6,-,0.01,Rain-Thunderstorm,Light Thunderstorms and Rain,320,2013-08-20 20:34:00
3:53 PM,79.0,70.0,74,30.08,10.0,Variable,3.5,-,0.01,,Scattered Clouds,0,2013-08-20 20:53:00
4:53 PM,82.0,71.1,69,30.06,10.0,ESE,6.9,-,N/A,,Clear,110,2013-08-20 21:53:00
5:53 PM,82.0,72.0,71,30.07,10.0,Calm,Calm,-,N/A,,Partly Cloudy,0,2013-08-20 22:53:00
6:53 PM,79.0,70.0,74,30.07,10.0,SE,3.5,-,N/A,,Clear,140,2013-08-20 23:53:00
7:53 PM,75.9,70.0,82,30.08,10.0,SE,3.5,-,N/A,,Clear,130,2013-08-21 00:53:00
8:53 PM,75.9,71.1,85,30.10,10.0,SE,5.8,-,N/A,,Clear,140,2013-08-21 01:53:00
9:53 PM,73.9,71.1,91,30.11,10.0,Calm,Calm,-,N/A,,Clear,0,2013-08-21 02:53:00
10:53 PM,73.9,69.1,85,30.11,10.0,SSE,3.5,-,N/A,,Clear,160,2013-08-21 03:53:00
11:53 PM,73.9,69.1,85,30.11,10.0,SSE,3.5,-,N/A,,Clear,150,2013-08-21 04:53:00